Franklin, NC

1:03 AM EDT on April 26, 2018 (GMT -0400)
Franklin

Weather History for K1A5 - January, 2014

Change the Weather History Date:

Saturday, January 11, 2014

  Actual Average (KTOC) Record (KTOC)
Temperature  
Mean Temperature 50 °F -  
Max Temperature 59 °F 48 °F 64 °F (2014)
Min Temperature 41 °F 30 °F 24 °F (2016)
Degree Days  
Heating Degree Days 15    
Moisture  
Dew Point 43 °F    
Average Humidity 78    
Maximum Humidity 100    
Minimum Humidity 34    
Precipitation  
Precipitation 0.85 in - - ()
Sea Level Pressure  
Sea Level Pressure 29.80 in    
Wind  
Wind Speed 6 mph (SW)    
Max Wind Speed 21 mph    
Max Gust Speed 36 mph    
Visibility 9 miles    
Events Rain    
Averages and records for this station are not official NWS values.
T = Trace of Precipitation, MM = Missing Value Source: NWS Daily Summary

Daily Weather History Graph

Daily Weather History Graph

Search for Another Location

Airport or City:

Astronomy

Jan. 11, 2014 Rise Set
Actual Time 7:42 AM EST 5:41 PM EST
Civil Twilight 7:14 AM EST 6:08 PM EST
Nautical Twilight 6:43 AM EST 6:40 PM EST
Astronomical Twilight 6:12 AM EST 7:10 PM EST
Moon 2:22 PM EST (1/11) 3:48 AM EST (1/11)
Length of Visible Light 10h 54m
Length of Day
9h 58m
Waxing Gibbous, 83% of the Moon is Illuminated
Jan 11
Waxing Gibbous
Jan 15
Full
Jan 24
Last Quarter
Jan 30
New
Feb 6
First Quarter

Hourly Weather History & Observations

Time (EST) Temp. Windchill Dew Point Humidity Pressure Visibility Wind Dir Wind Speed Gust Speed Precip Events Conditions
12:15 AM 49.5 °F - 49.5 °F 100% 30.02 in 10.0 mi East 5.8 mph - N/A Rain Rain
12:35 AM 48.9 °F - 48.9 °F 100% 30.00 in 10.0 mi ENE 3.5 mph - N/A   Light Drizzle
12:55 AM 49.1 °F - 49.1 °F 100% 29.99 in 10.0 mi ENE 5.8 mph - N/A Rain Light Rain
1:15 AM 48.0 °F - 48.0 °F 100% 29.99 in 10.0 mi ENE 3.5 mph - 0.01 in   Drizzle
1:35 AM 49.6 °F - 49.6 °F 100% 29.97 in 10.0 mi ESE 4.6 mph - 0.02 in Rain Light Rain
1:55 AM 51.6 °F - 51.3 °F 99% 29.96 in 10.0 mi SSE 3.5 mph - 0.02 in Rain Light Rain
2:15 AM 52.0 °F - 50.9 °F 96% 29.95 in 10.0 mi South 5.8 mph - N/A   Overcast
2:35 AM 52.3 °F - 50.9 °F 95% 29.94 in 10.0 mi SSE 4.6 mph - N/A Rain Light Rain
2:55 AM 52.2 °F - 50.9 °F 95% 29.91 in 10.0 mi SSE 5.8 mph - N/A   Light Drizzle
3:15 AM 52.3 °F - 50.9 °F 95% 29.89 in 10.0 mi SSE 6.9 mph - N/A   Overcast
3:35 AM 52.2 °F - 51.3 °F 97% 29.89 in 10.0 mi Calm Calm - 0.01 in Rain Rain
3:55 AM 51.8 °F - 51.8 °F 100% 29.89 in 3.0 mi SSE 6.9 mph - 0.15 in Rain Rain
4:15 AM 52.2 °F - 52.0 °F 99% 29.89 in 10.0 mi SSE 6.9 mph - 0.02 in Rain Rain
4:35 AM 52.0 °F - 51.4 °F 98% 29.87 in 10.0 mi SE 9.2 mph - 0.02 in Rain Light Rain
4:55 AM 51.8 °F - 51.4 °F 99% 29.86 in 10.0 mi SE 8.1 mph - 0.04 in Rain Light Rain
5:15 AM 51.8 °F - 51.8 °F 100% 29.85 in 10.0 mi SSE 10.4 mph - 0.01 in Rain Light Rain
5:35 AM 51.8 °F - 51.1 °F 97% 29.83 in 10.0 mi SSE 6.9 mph - 0.02 in Rain Light Rain
5:55 AM 52.7 °F - 51.1 °F 94% 29.82 in 10.0 mi SE 11.5 mph 16.1 mph 0.02 in   Overcast
6:15 AM 52.9 °F - 51.3 °F 94% 29.81 in 10.0 mi SE 10.4 mph 18.4 mph N/A   Overcast
6:35 AM 52.7 °F - 51.3 °F 95% 29.79 in 7.0 mi SE 9.2 mph 19.6 mph 0.02 in Rain Light Rain
6:55 AM 52.2 °F - 50.9 °F 95% 29.77 in 10.0 mi ESE 10.4 mph 16.1 mph 0.02 in Rain Rain
7:15 AM 51.8 °F - 51.4 °F 99% 29.77 in 7.0 mi ESE 12.7 mph 19.6 mph 0.02 in Rain Rain
7:35 AM 51.8 °F - 51.4 °F 99% 29.76 in 10.0 mi ESE 9.2 mph 17.3 mph 0.02 in Rain Light Rain
7:55 AM 52.0 °F - 51.8 °F 99% 29.76 in 7.0 mi ESE 6.9 mph - 0.04 in Rain Heavy Rain
8:15 AM 52.2 °F - 52.0 °F 99% 29.74 in 7.0 mi ESE 10.4 mph 17.3 mph 0.03 in Rain Rain
8:35 AM 52.7 °F - 52.5 °F 99% 29.74 in 3.0 mi Calm Calm - 0.10 in Rain Heavy Rain
8:55 AM 54.5 °F - 52.5 °F 93% 29.81 in 7.0 mi West 13.8 mph 21.9 mph 0.14 in Rain Rain
9:15 AM 53.4 °F - 51.3 °F 92% 29.80 in 7.0 mi Calm Calm - 0.02 in Rain Rain
9:35 AM 52.2 °F - 52.2 °F 100% 29.82 in 4.0 mi Calm Calm - 0.04 in Rain Rain
9:55 AM 51.4 °F - 51.4 °F 100% 29.80 in 4.0 mi SE 3.5 mph - 0.05 in Rain Heavy Rain
10:15 AM 51.8 °F - 51.8 °F 100% 29.81 in 5.0 mi East 3.5 mph - 0.01 in Rain Heavy Rain
10:35 AM 51.3 °F - 51.3 °F 100% 29.79 in 2.5 mi East 4.6 mph - 0.03 in Rain Heavy Rain
10:55 AM 51.4 °F - 51.4 °F 100% 29.78 in 10.0 mi Calm Calm - 0.05 in Rain Light Rain
11:15 AM 51.3 °F - 51.3 °F 100% 29.77 in 10.0 mi Calm Calm - 0.03 in Rain Light Rain
11:35 AM 50.9 °F - 50.9 °F 100% 29.77 in 10.0 mi Calm Calm - 0.06 in Rain Rain
11:55 AM 50.9 °F - 50.9 °F 100% 29.76 in 10.0 mi Calm Calm - 0.09 in   Mostly Cloudy
12:15 PM 50.9 °F - 50.9 °F 100% 29.77 in 10.0 mi Calm Calm - 0.02 in   Scattered Clouds
12:35 PM 50.7 °F - 50.7 °F 100% 29.74 in 10.0 mi ENE 4.6 mph - 0.06 in   Scattered Clouds
12:55 PM 50.9 °F - 50.9 °F 100% 29.73 in 10.0 mi Calm Calm - 0.08 in   Scattered Clouds
1:15 PM 51.3 °F - 51.3 °F 100% 29.73 in 10.0 mi Calm Calm - 0.02 in   Scattered Clouds
1:35 PM 53.8 °F - 49.1 °F 84% 29.72 in 10.0 mi WNW 4.6 mph - 0.04 in   Scattered Clouds
1:55 PM 55.8 °F - 38.8 °F 53% 29.71 in 10.0 mi West 9.2 mph - 0.05 in   Clear
2:15 PM 57.7 °F - 34.3 °F 41% 29.70 in 10.0 mi West 13.8 mph 23.0 mph 0.01 in   Clear
2:35 PM 58.8 °F - 37.9 °F 46% 29.70 in 10.0 mi WSW 4.6 mph - 0.02 in   Clear
2:55 PM 59.2 °F - 32.9 °F 37% 29.69 in 10.0 mi West 11.5 mph - 0.03 in   Clear
3:15 PM 59.0 °F - 32.0 °F 36% 29.69 in 10.0 mi West 17.3 mph 26.5 mph 0.01 in   Clear
3:35 PM 58.5 °F - 31.6 °F 36% 29.68 in 10.0 mi WNW 15.0 mph 23.0 mph 0.02 in   Clear
3:55 PM 58.5 °F - 31.1 °F 35% 29.68 in 10.0 mi West 15.0 mph 19.6 mph 0.02 in   Clear
4:15 PM 57.7 °F - 32.2 °F 38% 29.67 in 10.0 mi West 8.1 mph - 0.01 in   Clear
4:35 PM 57.2 °F - 29.1 °F 34% 29.68 in 10.0 mi West 11.5 mph 19.6 mph 0.01 in   Clear
4:55 PM 54.7 °F - 32.4 °F 43% 29.67 in 10.0 mi Calm Calm - 0.01 in   Scattered Clouds
5:15 PM 54.0 °F - 30.2 °F 40% 29.68 in 10.0 mi WSW 9.2 mph 17.3 mph N/A   Scattered Clouds
5:35 PM 53.2 °F - 29.5 °F 40% 29.68 in 10.0 mi West 20.7 mph 29.9 mph N/A   Clear
5:55 PM 52.3 °F - 30.7 °F 44% 29.69 in 10.0 mi West 5.8 mph - N/A   Clear
6:15 PM 52.2 °F - 30.0 °F 43% 29.70 in 10.0 mi WNW 12.7 mph 18.4 mph N/A   Clear
6:35 PM 52.2 °F - 28.6 °F 40% 29.71 in 10.0 mi West 9.2 mph 21.9 mph 0.01 in   Clear
6:55 PM 50.0 °F - 28.9 °F 44% 29.73 in 10.0 mi West 6.9 mph - 0.01 in   Clear
7:15 PM 49.3 °F - 29.7 °F 47% 29.74 in 10.0 mi West 8.1 mph - N/A   Scattered Clouds
7:35 PM 50.0 °F - 31.3 °F 49% 29.75 in 10.0 mi West 12.7 mph 21.9 mph N/A Rain Light Rain
7:55 PM 50.2 °F - 30.4 °F 47% 29.77 in 10.0 mi WNW 11.5 mph 19.6 mph N/A   Overcast
8:15 PM 47.8 °F - 33.4 °F 57% 29.78 in 10.0 mi West 13.8 mph 35.7 mph N/A Rain Light Rain
8:35 PM 46.6 °F - 33.3 °F 60% 29.79 in 10.0 mi WNW 5.8 mph - N/A   Overcast
8:55 PM 47.7 °F - 33.4 °F 58% 29.81 in 10.0 mi NW 9.2 mph 17.3 mph N/A   Drizzle
9:15 PM 41.9 °F 36.3 °F 37.6 °F 85% 29.83 in 5.0 mi SW 9.2 mph 19.6 mph N/A Rain Rain
9:35 PM 41.2 °F 39.2 °F 37.4 °F 86% 29.83 in 10.0 mi West 3.5 mph - N/A Rain Light Rain
9:55 PM 41.0 °F 39.0 °F 36.9 °F 85% 29.85 in 10.0 mi West 3.5 mph - 0.01 in   Light Drizzle
10:15 PM 41.0 °F - 37.0 °F 86% 29.86 in 10.0 mi Calm Calm - N/A   Overcast
10:35 PM 42.4 °F 38.8 °F 34.3 °F 73% 29.87 in 10.0 mi WNW 5.8 mph - N/A   Mostly Cloudy
10:55 PM 41.0 °F 34.7 °F 33.1 °F 73% 29.88 in 10.0 mi NW 10.4 mph - 0.01 in   Scattered Clouds
11:15 PM 43.5 °F 38.3 °F 30.6 °F 60% 29.89 in 10.0 mi NW 9.2 mph 18.4 mph N/A   Clear
11:35 PM 43.5 °F 37.9 °F 29.7 °F 58% 29.90 in 10.0 mi NW 10.4 mph 16.1 mph N/A   Scattered Clouds
11:55 PM 43.2 °F 37.9 °F 29.3 °F 58% 29.90 in 10.0 mi WNW 9.2 mph 17.3 mph 0.01 in   Clear